Tracking 18984 objects as of 24-Feb-2018
HD Live streaming from Space Station
objects crossing your sky now

FENGYUN 1C DEB

Track FENGYUN 1C DEB now!
10-day predictions


NORAD ID: 36269
Int'l Code: 1999-025DWW
Perigee: 650.8 km
Apogee: 1,027.0 km
Inclination: 99.2 °
Period: 101.5 minutes
Semi major axis: 7209 km
RCS: 0.0019 m2 (small)
Launch date: May 10, 1999
Source: People's Republic of China (PRC)
Launch site: Taiyaun Space Center, China (TSC)

Note: This is SATELLITE DEBRIS
aabbcc
Your satellite tracking list
Your tracking list is empty




NASA's NSSDC Master Catalog

Two Line Element Set (TLE):
1 36269U 99025DWW 18053.90867363 -.00000004 +00000-0 +16586-4 0  9995
2 36269 099.2077 215.7288 0260916 112.5294 250.3720 14.18103332472641
Source of the keplerian elements: AFSPC